Other Surface Observations
Issued by NWS

Current Version | Previous Version | Text Only | Print | Product List | Glossary On
Versions: 1 2 3 4 5 6 7 8 9 10 11 12 13 14 15 16 17 18 19 20 21 22 23 24 25 26 27 28 29 30 31 32 33 34 35 36 37 38 39 40 41 42 43 44 45 46 47 48 49 50
000
SXUS52 KTAE 312018
OSOTAE
OSOTAE
North Florida/South Alabama/Southwest Georgia Weather Roundup
National Weather Service Tallahassee Florida
400 PM EDT THU JUL 31 2014

Note: "fair" indicates few or no clouds below 12,000 feet with no
significant weather and/or obstructions to visibility.

!FLZ017-115-028-034-025-312100
...North Florida...

CITY           SKY/WX    TMP DP  RH WIND       PRES   REMARKS
TALLAHASSEE    PTSUNNY   91  62  37 NW8       29.97F HX  92
APALACHICOLA   SUNNY     83  66  56 SW13      29.98F
PERRY          PTSUNNY   88  59  37 CALM      29.98F
CROSS CITY       N/A     92  63  38 W6        29.96F HX  93
HOMERVILLE     FAIR      95  63  34 S6        29.97F HX  96
JACKSONVILLE   PTSUNNY   91  65  41 E12       29.96F HX  93
$$

!FLZ112-006-005-002-011-312100
...Florida Panhandle...

CITY           SKY/WX    TMP DP  RH WIND       PRES   REMARKS
MARIANNA       MOSUNNY   89  63  41 VRB7      29.98F HX  90
BONIFAY        FAIR      89  58  34 CALM      30.00F
PANAMA CITY NW FAIR      88  59  37 SW8       29.97F
TYNDALL AFB    SUNNY     86  63  45 W13       30.00S
TYND DRONE APT FAIR      84  62  47 W14       29.98F
DE FUNIAK SPR  FAIR      87  56  34 N8        30.00F
EGLIN AFB      MOSUNNY   86  60  41 S12       30.00F
DESTIN         SUNNY     87  60  40 VRB6      30.00F
HURLBURT       SUNNY     86  55  34 S13       29.99F
CRESTVIEW      MOSUNNY   89  55  31 CALM      30.02S
PENSACOLA      SUNNY     87  59  38 MISG      30.00F
$$

!ALZ063-066-312100
...South Alabama...

CITY           SKY/WX    TMP DP  RH WIND       PRES   REMARKS
DOTHAN         SUNNY     87  52  29 SW6       30.04F
OZARK CAIRNS   SUNNY     88  59  37 S5        30.00F
FT RUCKER HELI MOSUNNY   89  57  33 VRB6      29.98F
RUCKER HELI 3  FAIR      88  61  39 VRB6      30.03S
RUCKER HELI 2  PTSUNNY   89  57  33 VRB6      30.00S
FLORALA APT    MOSUNNY   87  55  33 N5        30.03S
ANDALUSIA      MOSUNNY   93  58  30 N9        30.01F HX  92
TROY           MOSUNNY   89  55  31 CALM      30.01F
EUFALA         FAIR      91  59  33 CALM      29.99F HX  90
MOBILE         MOSUNNY   88  62  41 MISG      30.02F
$$

!GAZ120>161-312100
...Southwest and South Central Georgia...

CITY           SKY/WX    TMP DP  RH WIND       PRES   REMARKS
THOMASVILLE    FAIR      90  57  33 CALM      29.99F
BAINBRIDGE     MOSUNNY   95  63  34 SW6       29.98S HX  96
MOODY AFB      SUNNY     93  59  32 SE5       29.97S HX  92
VALDOSTA       MOSUNNY   95  60  31 SE7       29.97F HX  95
MOULTRIE       MOSUNNY   90  59  35 CALM      29.99S
BLAKELY        PTSUNNY   90  59  35 CALM      29.99S
ALBANY         MOSUNNY   88  60  38 VRB3      29.99F
TIFTON         FAIR      89  58  34 W7        29.97F
FITZGERALD     FAIR      93  59  31 SW6       29.99F HX  92
CORDELE        MOCLDY    91  64  41 NW9       29.98F HX  92
AMERICUS       FAIR      86  63  45 CALM      30.01F
$$

!GMZ750-755-770-775-312100
...Coastal and Buoy Obs...

STATION/POSITION TIME  TEMP    WIND        PRES    VSBY  WAVE
                       AIR SEA DIR/SP/G                  HT/PER
                 (UTC) (F)     (DEG/KT/KT) (MB)    (MI)  (FT/S)
KEATON BEACH     2000   85     260/ 11/ 12 1015.3F
CEDAR KEY        2000   87     300/  8/ 13 1015.3F
C TOWER          2000   82     240/  4/  5 1015.5F
APALACHICOLA BUO 2000   83 87  340/  2/  6 1015.8F         1/ 8
PANAMA CITY BUOY 1950   82 87  310/  4/  8 1016.1F         1/ 9
MOBILE BUOY      1907   82 87   40/  6/  8 1016.7
ORANGE BCH AL BU 2000   82 85  260/  4/  6 1016.4F         1
$$



USA.gov is the U.S. government's official web portal to all federal, state and local government web resources and services.